| time (UTC) | temp F | wind direction | speed knots | gust knots | rain 1hr in | rain 24hr in | rain mn in | humidity % | barometer mb |
| 20260901173017 | 92 | 225 | 6.1 | 12.2 | 0.00 | 0.00 | 0.00 | 59 | 996.3 |
| 20260901170018 | 91 | 225 | 7.0 | 13.0 | 0.00 | 0.00 | 0.00 | 57 | 996.6 |
| 20260901163017 | 90 | 225 | 7.0 | 13.0 | 0.00 | 0.00 | 0.00 | 59 | 996.6 |
| 20260901160017 | 88 | 225 | 7.0 | 13.0 | 0.00 | 0.00 | 0.00 | 63 | 996.7 |
| 20260901153037 | 87 | 225 | 6.1 | 13.0 | 0.00 | 0.00 | 0.00 | 65 | 996.8 |
| 20260901150017 | 85 | 225 | 5.2 | 10.4 | 0.00 | 0.00 | 0.00 | 67 | 997.0 |
| 20260901143017 | 84 | 203 | 5.2 | 8.7 | 0.00 | 0.00 | 0.00 | 71 | 996.8 |
| 20260901140019 | 81 | 225 | 5.2 | 8.7 | 0.00 | 0.00 | 0.00 | 75 | 996.7 |
| 20260901133017 | 79 | 203 | 5.2 | 8.7 | 0.00 | 0.00 | 0.00 | 80 | 996.8 |
| 20260901130059 | 76 | 203 | 3.5 | 7.8 | 0.00 | 0.00 | 0.00 | 85 | 996.7 |
| 20260901123018 | 74 | 203 | 3.5 | 5.2 | 0.00 | 0.00 | 0.00 | 87 | 996.3 |
| 20260901120017 | 74 | 203 | 3.5 | 7.0 | 0.00 | 0.00 | 0.00 | 88 | 996.1 |
| 20260901113017 | 75 | 203 | 3.5 | 6.1 | 0.00 | 0.00 | 0.00 | 87 | 995.9 |
| 20260901110017 | 75 | 203 | 2.6 | 5.2 | 0.00 | 0.00 | 0.00 | 86 | 995.5 |
| 20260901103017 | 75 | 203 | 3.5 | 5.2 | 0.00 | 0.00 | 0.00 | 86 | 995.5 |
| 20260901100017 | 76 | 180 | 3.5 | 6.1 | 0.00 | 0.00 | 0.00 | 86 | 995.5 |
| 20260901093017 | 76 | 203 | 2.6 | 5.2 | 0.00 | 0.00 | 0.00 | 85 | 995.2 |
| 20260901090017 | 77 | 203 | 3.5 | 6.1 | 0.00 | 0.00 | 0.00 | 84 | 995.3 |
| 20260901083017 | 78 | 203 | 2.6 | 5.2 | 0.00 | 0.00 | 0.00 | 83 | 995.2 |
| 20260901080017 | 79 | 225 | 3.5 | 5.2 | 0.00 | 0.00 | 0.00 | 81 | 995.3 |
| 20260901073017 | 79 | 225 | 3.5 | 7.0 | 0.00 | 0.00 | 0.00 | 81 | 995.4 |
| 20260901070017 | 79 | 203 | 3.5 | 6.1 | 0.00 | 0.00 | 0.00 | 81 | 995.5 |
| 20260901063057 | 79 | 203 | 2.6 | 5.2 | 0.00 | 0.00 | 0.00 | 82 | 995.4 |
| 20260901060017 | 80 | 225 | 3.5 | 5.2 | 0.00 | 0.00 | 0.00 | 81 | 995.3 |
| 20260901053017 | 80 | 203 | 3.5 | 5.2 | 0.00 | 0.00 | 0.00 | 81 | 995.1 |
| 20260901050017 | 80 | 203 | 3.5 | 5.2 | 0.00 | 0.00 | 0.00 | 82 | 995.1 |
| 20260901043036 | 80 | 203 | 2.6 | 5.2 | 0.00 | 0.00 | 0.00 | 82 | 994.9 |
| 20260901040016 | 81 | 203 | 3.5 | 5.2 | 0.00 | 0.00 | 0.00 | 81 | 994.8 |
| 20260901033017 | 81 | 203 | 3.5 | 5.2 | 0.00 | 0.00 | 0.00 | 81 | 994.8 |
| 20260901030016 | 82 | 203 | 3.5 | 5.2 | 0.00 | 0.00 | 0.00 | 80 | 994.8 |
| 20260901023019 | 83 | 203 | 3.5 | 6.1 | 0.00 | 0.00 | 0.00 | 79 | 994.7 |
| 20260901020017 | 83 | 203 | 3.5 | 6.1 | 0.00 | 0.00 | 0.00 | 79 | 994.5 |
| 20260901013019 | 84 | 203 | 3.5 | 4.3 | 0.00 | 0.00 | 0.00 | 78 | 994.3 |
| 20260901010017 | 85 | 203 | 3.5 | 5.2 | 0.00 | 0.00 | 0.00 | 77 | 994.0 |
| 20260901003037 | 86 | 203 | 2.6 | 4.3 | 0.00 | 0.00 | 0.00 | 74 | 993.8 |
| 20260901000017 | 88 | 203 | 2.6 | 5.2 | 0.00 | 0.00 | 0.00 | 71 | 993.8 |
| 20260831233017 | 90 | 225 | 3.5 | 5.2 | 0.00 | 0.00 | 0.00 | 69 | 993.9 |
| 20260831230017 | 91 | 225 | 4.3 | 6.1 | 0.00 | 0.00 | 0.00 | 65 | 993.8 |
| 20260831223017 | 91 | 203 | 4.3 | 8.7 | 0.00 | 0.00 | 0.00 | 65 | 993.6 |
| 20260831220037 | 92 | 225 | 5.2 | 9.6 | 0.00 | 0.00 | 0.00 | 63 | 993.8 |
| 20260831213017 | 92 | 225 | 5.2 | 9.6 | 0.00 | 0.00 | 0.00 | 60 | 993.8 |
| 20260831210017 | 92 | 225 | 5.2 | 9.6 | 0.00 | 0.00 | 0.00 | 60 | 994.0 |
| 20260831203017 | 91 | 225 | 5.2 | 9.6 | 0.00 | 0.00 | 0.00 | 60 | 994.0 |
| 20260831200017 | 90 | 225 | 6.1 | 12.2 | 0.00 | 0.00 | 0.00 | 62 | 994.0 |
| 20260831193037 | 92 | 225 | 7.0 | 13.0 | 0.00 | 0.00 | 0.00 | 58 | 994.1 |
| 20260831190017 | 91 | 225 | 7.0 | 13.9 | 0.00 | 0.00 | 0.00 | 57 | 994.0 |
| 20260831183018 | 91 | 225 | 7.8 | 13.0 | 0.00 | 0.00 | 0.00 | 58 | 994.3 |
| 20260831180017 | 90 | 225 | 7.0 | 13.9 | 0.00 | 0.00 | 0.00 | 58 | 994.3 |